Tracking 20040 objects as of 18-Nov-2019
Live streaming from Space Station
objects crossing your sky now

NEPALISAT1

Track NEPALISAT1 now!
10-day predictions
NEPALISAT1 is classified as:


NORAD ID: 44329
Int'l Code: 1998-067QE
Perigee: 408.0 km
Apogee: 416.3 km
Inclination: 51.6 °
Period: 92.7 minutes
Semi major axis: 6783 km
RCS: Unknown
Launch date: November 20, 1998
Source: Federal Democratic Republic of Nepal (NPL)
Launch site: TYURATAM MISSILE AND SPACE COMPLEX (TTMTR)

Uplink (MHz):
Downlink (MHz): 437.375
Beacon (MHz): 437.375
Mode: 4800bps GMSK CW
Call sign: JG6YLG
Status: Active

aabbcc
Your satellite tracking list
Your tracking list is empty




NASA's NSSDC Master Catalog

Two Line Element Set (TLE):
1 44329U 98067QE  19321.40077040  .00009021  00000-0  14387-3 0  9998
2 44329  51.6407 319.0351 0006171 294.1151  65.9194 15.54020002 23836
Source of the keplerian elements: AFSPC